Regional Weather Roundup
Issued by NWS

Home | Current Version | Previous Version | Graphics & Text | Print | Product List | Glossary On
Versions: 1 2 3 4 5 6 7 8 9 10 11 12 13 14 15 16 17 18 19 20 21 22 23 24 25 26 27 28 29 30 31 32 33 34 35 36 37 38 39 40 41 42 43 44 45 46 47 48 49 50
000
ASUS45 KSLC 020710
RWRUT

UTAH REGIONAL WEATHER ROUNDUP
NATIONAL WEATHER SERVICE SALT LAKE CITY UT
100 AM MDT WED SEP 02 2015

UTZ001>011-023>025-020800-

NORTHERN UTAH

CITY           SKY/WX    TMP DP  RH WIND       PRES   REMARKS
BRIGHAM CITY   PTCLDY    83  25  12 S23G33    29.90R
HILL AFB       CLOUDY    78  36  21 S16       29.96R
LOGAN          CLEAR     73  37  27 S6        29.91S
OGDEN          PTCLDY    79  36  21 S17       29.93R
PROVO AIRPORT  CLEAR     70  43  37 S10       30.02R
SALT LAKE CITY PTCLDY    80  41  24 S21G31    29.92S
VERNAL         CLEAR     60  46  59 NW3       30.14S
WENDOVER       CLEAR     81  27  13 SW20      29.89R
HEBER CITY     CLEAR     61  43  51 CALM      30.11R
WEST JORDAN    CLEAR     75  45  33 SE16      29.98R

$$

UTZ012>022-026-027-020800-

SOUTHERN/CENTRAL UTAH

CITY           SKY/WX    TMP DP  RH WIND       PRES   REMARKS
BLANDING       PTCLDY    63  45  51 N5        30.26S
BRYCE CANYON   CLEAR     50  42  74 SW5       30.31S
CEDAR CITY     CLEAR     63  40  42 SW5       30.15R
DELTA          CLEAR     71  33  25 S14       30.04R
HANKSVILLE     CLEAR     64  52  63 NW5       30.11R
MILFORD        CLEAR     68  39  34 S13       30.08S
MOAB/CYNLANDS  CLEAR     65  57  75 NE6       30.08R
PRICE          MOCLDY    59  45  59 NE3       30.17S
ST GEORGE      SUNNY     81  45  28 SE12      29.98R
KANAB          CLEAR     61  55  82 NE5       30.19S

$$

REGIONAL REPORTS     COLORADO/ARIZONA

CITY           SKY/WX    TMP DP  RH WIND       PRES   REMARKS
CRAIG, CO      PTCLDY    53  44  71 CALM      30.22R
GRAND JUNCTION PTCLDY    64  50  60 E8        30.14S
RIFLE          CLEAR     57  51  80 SW7       30.23R
MONTROSE       LGT RAIN  64  50  60 E6        30.24S
CORTEZ         CLEAR     57  47  69 SE3       30.22R
PAGE, AZ       CLEAR     78  49  35 SW8       30.06S
GRAND CANYON   CLEAR     54  50  86 CALM      30.29R
KINGMAN        PTCLDY    77  49  37 S9        30.02S
FLAGSTAFF      MOCLDY    56  50  80 CALM      30.32S

$$

REGIONAL REPORTS    NEVADA/IDAHO/WYOMING

CITY           SKY/WX    TMP DP  RH WIND       PRES   REMARKS
LAS VEGAS, NV  PTCLDY    89  53  29 S6        29.85S
ELY            CLEAR     58  30  34 S12       30.14R
ELKO           CLEAR     62  28  27 CALM      29.98R
POCATELLO, ID  CLEAR     62  40  44 MISG      29.87R
BURLEY         CLEAR     55  47  74 CALM      29.84S
EVANSTON, WY   PTCLDY    61  40  45 S6        30.17F
ROCK SPRINGS   CLEAR     58  42  55 S8        30.17S
KEMMERER       PTCLDY    59  37  44 S3        30.18S

$$



USA.gov is the U.S. government's official web portal to all federal, state and local government web resources and services.